Regional Weather Roundup
Issued by NWS Jackson, KY

Home | Current Version | Previous Version | Graphics & Text | Print | Product List | Glossary On
Versions: 1 2 3 4 5 6 7 8 9 10 11 12 13 14 15 16 17 18 19 20 21 22 23 24 25 26 27 28 29 30 31 32 33 34 35 36 37 38 39 40 41 42 43 44 45 46 47 48 49 50
000
ASUS43 KJKL 270210
RWRJKL

EAST KENTUCKY HOURLY WEATHER ROUNDUP
NATIONAL WEATHER SERVICE JACKSON KY
900 PM EST THU FEB 26 2015

NOTE: "FAIR" INDICATES FEW OR NO CLOUDS BELOW 12,000 FEET WITH
NO SIGNIFICANT WEATHER AND/OR OBSTRUCTIONS TO VISIBILITY.

* THESE REPORTS ARE NOT UNDER NWS QUALITY CONTROL AND MAY NOT
  REPORT WEATHER SUCH AS PRECIPITATION AND FOG.

KYZ079-080-083-085-087-088-110-112-115-119-120-270300
...EASTERN KENTUCKY...

CITY           SKY/WX    TMP DP  RH WIND       PRES   REMARKS
JACKSON        CLOUDY    28  16  60 N5        30.14R WCI  23
LONDON         CLOUDY    32  16  51 N8        30.15R WCI  25
SOMERSET*      CLOUDY    30  19  64 N12G18    30.21R WCI  21
MONTICELLO*    CLOUDY    31  21  66 NW10      30.22R WCI  22
MIDDLESBORO*   MOCLDY    27  24  89 CALM      30.14R
HAZARD APT*    CLOUDY    30  16  55 NW6       30.14R WCI  24
BLACK MTN*       N/A     19  18  93 N1          N/A
PIKEVILLE APT* CLOUDY    30  16  55 NW12      30.11R WCI  21
BIG SANDY*     CLOUDY    30  18  59 NW7       30.13R WCI  23
MOREHEAD APT*  CLOUDY    21  12  68 N10G17    30.23R WCI  10
$$

KYZ035-036-041-042-044-050-067-078-099-270300
...CENTRAL KENTUCKY...

CITY           SKY/WX    TMP DP  RH WIND       PRES   REMARKS
MT STERLING*   FLURRIES  23  19  86 N10       30.23R WCI  12
DANVILLE*      LGT SNOW  23  21  93 N13       30.23R WCI  11
RICHMOND*      CLOUDY    25  19  80 N7        30.20R WCI  17
LEXINGTON      FLURRIES  20  13  74 N15       30.24R WCI   6
FRANKFORT      LGT SNOW  20  14  77 NW10      30.26R WCI   9
$$

KYZ091>093-OHZ055-061-077-WVZ005-015-034-035-042-270300
...SOUTHERN OHIO/WEST VIRGINIA...

CITY           SKY/WX    TMP DP  RH WIND       PRES   REMARKS
COVINGTON      CLOUDY    15   7  70 N14       30.28R WCI   0
COLUMBUS       FLURRIES  12   4  70 N16       30.26R WCI  -5
DAYTON         CLOUDY    11   5  77 NW5       30.27R WCI   3
WILMINGTON     CLOUDY    12   4  70 N12       30.25R WCI  -2
HUNTINGTON     CLOUDY    22  14  71 NW10      30.18R WCI  11
CHARLESTON     CLOUDY    29  13  51 VRB7      30.13R WCI  22
PINEVILLE*     CLOUDY    30  29  98 MISG      30.10S
BECKLEY        CLOUDY    24  18  77 CALM      30.01R
BLUEFIELD      MOCLDY    27  22  81 W3        30.00S
$$

VAZ002-007-008-TNZ017-027-036-066-071-270300
...SOUTHWEST VIRGINIA/EAST TENNESSEE...

CITY           SKY/WX    TMP DP  RH WIND       PRES   REMARKS
WISE*          MOCLDY    30  21  69 NW7       30.05R WCI  23
JONESVILLE*    PTCLDY    28  21  74 CALM      30.12R
ABINGDON*      CLOUDY    33  29  83 W5        30.06R WCI  29
BRISTOL        MOCLDY    31  29  92 W6        30.09R WCI  25
KNOXVILLE      PTCLDY    33  30  88 S3        30.14R
OAK RIDGE      MOCLDY    33  29  85 CALM      30.15R
CROSSVILLE     CLOUDY    33  18  53 NW8       30.13R WCI  26
NASHVILLE      CLOUDY    31  23  72 N13       30.27R WCI  21
$$

...KEY TO REMARKS...
VSB - VISIBILITY IN MILES
WCI - WIND CHILL INDEX
HX  - HEAT INDEX

$$



USA.gov is the U.S. government's official web portal to all federal, state and local government web resources and services.